Station Historical Data
Daily Summary for January 10, 2017 Units:  English    Metric   Both
« Previous Day
Next Day »
Daily Weekly Monthly Yearly Custom
  High: Low: Average:
Temperature: 55.3 °F 31.3 °F 43.8 °F
Dew Point: 44.3 °F 12.3 °F 28.7 °F
Humidity: 68% 43% 55%
Wind Speed: 10.4mph 10.4mph 10.4mph
Wind Gust: 10.4mph - -
Wind- - SW
Pressure: 30.59 in 30.33 in -
Precipitation: 0.09 in    
Historical Graphs
 
 
Tabular Data for January 10, 2017
Time Temperature Dew Point Pressure Wind Wind Speed Wind Gust Humidity Rainfall Rate (Hourly) Conditions
00:01 32.3 °F 12.3 °F 30.59 in NW 10.4 mph 10.4 mph 43% 0.00 in RA
00:06 32.4 °F 12.9 °F 30.59 in NW 10.4 mph   44% 0.00 in
00:11 32.3 °F 12.8 °F 30.59 in NW 10.4 mph   44% 0.00 in
00:16 32.3 °F 12.3 °F 30.59 in NW 10.4 mph   43% 0.00 in
00:22 32.3 °F 12.3 °F 30.59 in NW 10.4 mph   43% 0.00 in
00:27 32.4 °F 12.4 °F 30.59 in NNE 10.4 mph   43% 0.00 in
00:32 32.4 °F 12.9 °F 30.59 in North 10.4 mph   44% 0.00 in
00:37 32.3 °F 13.8 °F 30.59 in North 10.4 mph   46% 0.00 in
00:42 32.3 °F 13.8 °F 30.59 in North 10.4 mph   46% 0.00 in
00:47 32.3 °F 13.3 °F 30.59 in North 10.4 mph   45% 0.00 in
00:52 32.4 °F 13.4 °F 30.58 in North 10.4 mph 10.4 mph 45% 0.00 in
00:57 32.4 °F 13.4 °F 30.58 in NNW 10.4 mph   45% 0.00 in
01:02 32.6 °F 14.1 °F 30.58 in NNW 10.4 mph   46% 0.00 in
01:07 32.7 °F 13.7 °F 30.57 in WNW 10.4 mph 10.4 mph 45% 0.00 in
01:12 32.7 °F 13.7 °F 30.57 in WNW 10.4 mph   45% 0.00 in
01:27 32.3 °F 13.3 °F 30.57 in WNW 10.4 mph   45% 0.00 in
01:33 32.2 °F 13.2 °F 30.57 in WNW 10.4 mph   45% 0.00 in
01:38 32.1 °F 14.1 °F 30.56 in WNW 10.4 mph   47% 0.00 in
01:43 32.0 °F 14.5 °F 30.56 in WNW 10.4 mph   48% 0.00 in
01:48 32.0 °F 15.0 °F 30.56 in WNW 10.4 mph   49% 0.00 in
01:53 32.0 °F 14.5 °F 30.56 in West 10.4 mph   48% 0.00 in
01:58 32.0 °F 15.0 °F 30.56 in West 10.4 mph 10.4 mph 49% 0.00 in
02:03 32.0 °F 15.0 °F 30.56 in NW 10.4 mph 10.4 mph 49% 0.00 in
02:08 32.0 °F 15.0 °F 30.55 in West 10.4 mph 10.4 mph 49% 0.00 in
02:13 32.0 °F 14.5 °F 30.56 in WNW 10.4 mph   48% 0.00 in
02:18 32.0 °F 15.4 °F 30.56 in WNW 10.4 mph   50% 0.00 in
02:23 32.0 °F 15.0 °F 30.56 in West 10.4 mph   49% 0.00 in
02:28 32.1 °F 14.6 °F 30.56 in WNW 10.4 mph   48% 0.00 in
02:33 32.2 °F 14.7 °F 30.56 in West 10.4 mph   48% 0.00 in
02:38 32.3 °F 14.8 °F 30.56 in West 10.4 mph   48% 0.00 in
02:43 32.3 °F 15.3 °F 30.56 in West 10.4 mph   49% 0.00 in
02:49 32.3 °F 14.8 °F 30.56 in West 10.4 mph   48% 0.00 in
02:54 31.3 °F 13.9 °F 30.56 in West 10.4 mph   48% 0.00 in
02:59 31.3 °F 13.9 °F 30.56 in West 10.4 mph   48% 0.00 in
03:04 31.3 °F 13.9 °F 30.56 in NNE 10.4 mph   48% 0.00 in
03:09 31.3 °F 13.9 °F 30.56 in North 10.4 mph   48% 0.00 in
03:14 31.3 °F 13.9 °F 30.56 in North 10.4 mph   48% 0.00 in
03:19 31.3 °F 13.9 °F 30.55 in North 10.4 mph   48% 0.00 in
03:24 31.3 °F 13.9 °F 30.55 in North 10.4 mph   48% 0.00 in
03:29 31.3 °F 13.9 °F 30.54 in North 10.4 mph   48% 0.00 in
03:34 31.3 °F 13.9 °F 30.55 in North 10.4 mph   48% 0.00 in
03:39 31.3 °F 13.9 °F 30.55 in North 10.4 mph   48% 0.00 in
03:44 31.3 °F 13.9 °F 30.54 in North 10.4 mph   48% 0.00 in
03:49 31.3 °F 13.9 °F 30.54 in North 10.4 mph   48% 0.00 in
03:54 31.3 °F 13.9 °F 30.55 in North 10.4 mph   48% 0.00 in
03:59 31.3 °F 13.9 °F 30.54 in North 10.4 mph   48% 0.00 in
04:05 31.3 °F 13.9 °F 30.53 in North 10.4 mph   48% 0.00 in
04:10 31.3 °F 13.9 °F 30.53 in North 10.4 mph   48% 0.00 in
04:15 31.3 °F 13.9 °F 30.54 in North 10.4 mph   48% 0.00 in
04:20 31.3 °F 13.9 °F 30.54 in North 10.4 mph   48% 0.00 in
04:25 31.3 °F 13.9 °F 30.54 in North 10.4 mph   48% 0.00 in
04:30 31.3 °F 13.9 °F 30.54 in North 10.4 mph   48% 0.00 in
04:35 31.3 °F 13.9 °F 30.54 in North 10.4 mph   48% 0.00 in
04:40 31.3 °F 13.9 °F 30.54 in North 10.4 mph   48% 0.00 in
04:45 31.3 °F 13.9 °F 30.54 in North 10.4 mph   48% 0.00 in
04:50 31.3 °F 13.9 °F 30.54 in North 10.4 mph   48% 0.00 in
04:56 31.3 °F 13.9 °F 30.53 in North 10.4 mph   48% 0.00 in
05:01 31.3 °F 13.9 °F 30.53 in North 10.4 mph   48% 0.00 in
05:11 31.3 °F 13.9 °F 30.53 in North 10.4 mph   48% 0.00 in
05:16 31.3 °F 13.9 °F 30.53 in North 10.4 mph   48% 0.00 in
05:21 31.3 °F 13.9 °F 30.53 in North 10.4 mph   48% 0.00 in
05:26 31.3 °F 13.9 °F 30.53 in North 10.4 mph   48% 0.00 in
05:31 31.3 °F 13.9 °F 30.52 in North 10.4 mph   48% 0.00 in
05:36 31.3 °F 13.9 °F 30.52 in North 10.4 mph   48% 0.00 in
05:41 31.3 °F 13.9 °F 30.52 in North 10.4 mph   48% 0.00 in
05:46 31.3 °F 13.9 °F 30.52 in North 10.4 mph   48% 0.00 in
05:51 31.3 °F 13.9 °F 30.53 in North 10.4 mph   48% 0.00 in
05:56 31.3 °F 13.9 °F 30.52 in North 10.4 mph   48% 0.00 in
06:01 31.3 °F 13.9 °F 30.52 in North 10.4 mph   48% 0.00 in
06:06 31.3 °F 13.9 °F 30.52 in North 10.4 mph   48% 0.00 in
06:11 31.3 °F 13.9 °F 30.52 in North 10.4 mph   48% 0.00 in
06:17 31.3 °F 13.9 °F 30.52 in North 10.4 mph   48% 0.00 in
06:22 31.3 °F 13.9 °F 30.52 in North 10.4 mph   48% 0.00 in
06:27 31.3 °F 13.9 °F 30.53 in North 10.4 mph   48% 0.00 in
06:32 31.3 °F 13.9 °F 30.52 in North 10.4 mph   48% 0.00 in
06:37 31.3 °F 13.9 °F 30.52 in North 10.4 mph   48% 0.00 in
06:42 31.3 °F 13.9 °F 30.51 in North 10.4 mph   48% 0.00 in
06:47 31.3 °F 13.9 °F 30.52 in North 10.4 mph   48% 0.00 in
06:52 31.3 °F 13.9 °F 30.52 in North 10.4 mph   48% 0.00 in
06:57 31.3 °F 13.9 °F 30.52 in North 10.4 mph   48% 0.00 in
07:02 31.3 °F 13.9 °F 30.52 in North 10.4 mph   48% 0.00 in
07:07 31.3 °F 13.9 °F 30.52 in North 10.4 mph   48% 0.00 in
07:12 31.3 °F 13.9 °F 30.53 in North 10.4 mph   48% 0.00 in
07:17 31.3 °F 13.9 °F 30.53 in North 10.4 mph   48% 0.00 in CLR
07:22 31.3 °F 13.9 °F 30.53 in North 10.4 mph   48% 0.00 in CLR
07:27 31.3 °F 13.9 °F 30.53 in North 10.4 mph   48% 0.00 in CLR
07:32 31.3 °F 13.9 °F 30.53 in North 10.4 mph   48% 0.00 in CLR
07:38 31.3 °F 13.9 °F 30.53 in North 10.4 mph   48% 0.00 in CLR
07:43 31.3 °F 13.9 °F 30.54 in North 10.4 mph   48% 0.00 in CLR
07:48 31.3 °F 13.9 °F 30.54 in North 10.4 mph   48% 0.00 in CLR
07:53 31.3 °F 13.9 °F 30.54 in North 10.4 mph   48% 0.00 in CLR
07:58 31.3 °F 13.9 °F 30.54 in North 10.4 mph   48% 0.00 in CLR
08:03 31.3 °F 13.9 °F 30.55 in North 10.4 mph   48% 0.00 in CLR
08:08 31.3 °F 13.9 °F 30.54 in North 10.4 mph   48% 0.00 in CLR
08:13 31.3 °F 13.9 °F 30.54 in North 10.4 mph   48% 0.00 in CLR
08:18 31.3 °F 13.9 °F 30.54 in North 10.4 mph   48% 0.00 in CLR
08:23 31.3 °F 13.9 °F 30.54 in North 10.4 mph   48% 0.00 in CLR
08:28 31.3 °F 13.9 °F 30.54 in North 10.4 mph   48% 0.00 in CLR
08:33 31.3 °F 13.9 °F 30.54 in North 10.4 mph   48% 0.00 in CLR
08:38 31.3 °F 13.9 °F 30.55 in North 10.4 mph   48% 0.00 in CLR
08:43 31.3 °F 13.9 °F 30.55 in North 10.4 mph   48% 0.00 in CLR
08:48 31.3 °F 13.9 °F 30.54 in North 10.4 mph   48% 0.00 in CLR
08:54 31.3 °F 13.9 °F 30.54 in North 10.4 mph   48% 0.00 in CLR
08:59 31.3 °F 13.9 °F 30.54 in North 10.4 mph   48% 0.00 in CLR
09:04 31.3 °F 13.9 °F 30.54 in North 10.4 mph   48% 0.00 in OVC
09:09 31.3 °F 13.9 °F 30.54 in North 10.4 mph   48% 0.00 in OVC
09:14 34.3 °F 24.5 °F 30.53 in WNW 10.4 mph 10.4 mph 67% 0.00 in OVC
09:19 34.4 °F 24.6 °F 30.54 in WNW 10.4 mph 10.4 mph 67% 0.00 in OVC
09:24 34.4 °F 24.6 °F 30.54 in NW 10.4 mph 10.4 mph 67% 0.00 in OVC
09:29 34.8 °F 25.3 °F 30.54 in WNW 10.4 mph 10.4 mph 68% 0.00 in OVC
09:39 36.0 °F 25.7 °F 30.54 in WNW 10.4 mph 10.4 mph 66% 0.00 in OVC
09:44 36.1 °F 26.2 °F 30.55 in WNW 10.4 mph   67% 0.00 in OVC
09:49 36.5 °F 26.2 °F 30.54 in NNW 10.4 mph 10.4 mph 66% 0.00 in OVC
09:55 37.3 °F 27.3 °F 30.55 in NW 10.4 mph 10.4 mph 67% 0.00 in OVC
09:57 37.6 °F 27.3 °F 30.55 in WNW 10.4 mph 10.4 mph 66% 0.00 in OVC
10:02 37.9 °F 27.2 °F 30.55 in WNW 10.4 mph   65% 0.00 in OVC
10:07 38.1 °F 27.4 °F 30.55 in NNW 10.4 mph 10.4 mph 65% 0.00 in OVC
10:12 38.3 °F 27.6 °F 30.55 in WNW 10.4 mph 10.4 mph 65% 0.00 in OVC
10:17 38.5 °F 27.7 °F 30.55 in North 10.4 mph 10.4 mph 65% 0.00 in OVC
10:27 38.9 °F 28.1 °F 30.56 in NE 10.4 mph 10.4 mph 65% 0.00 in OVC
10:33 39.5 °F 29.1 °F 30.55 in NNE 10.4 mph 10.4 mph 66% 0.00 in OVC
10:38 40.1 °F 29.3 °F 30.55 in West 10.4 mph 10.4 mph 65% 0.00 in OVC
10:48 41.4 °F 29.7 °F 30.54 in WNW 10.4 mph 10.4 mph 63% 0.00 in OVC
10:53 42.0 °F 29.9 °F 30.54 in West 10.4 mph 10.4 mph 62% 0.00 in OVC
10:58 42.2 °F 30.1 °F 30.54 in WSW 10.4 mph 10.4 mph 62% 0.00 in OVC
11:03 42.6 °F 30.5 °F 30.54 in WNW 10.4 mph 10.4 mph 62% 0.00 in OVC
11:08 43.1 °F 30.6 °F 30.54 in NW 10.4 mph 10.4 mph 61% 0.00 in OVC
11:13 43.9 °F 30.9 °F 30.54 in West 10.4 mph 10.4 mph 60% 0.00 in OVC
11:18 44.8 °F 31.3 °F 30.53 in NW 10.4 mph 10.4 mph 59% 0.01 in RA
11:23 45.3 °F 31.4 °F 30.53 in West 10.4 mph 10.4 mph 58% 0.01 in OVC
11:28 45.6 °F 31.2 °F 30.52 in NW 10.4 mph 10.4 mph 57% 0.02 in OVC
11:33 46.0 °F 31.2 °F 30.52 in NW 10.4 mph 10.4 mph 56% 0.03 in RA
11:39 46.9 °F 32.0 °F 30.51 in West 10.4 mph 10.4 mph 56% 0.03 in OVC
11:44 46.9 °F 31.6 °F 30.51 in NW 10.4 mph 10.4 mph 55% 0.03 in OVC
11:49 47.0 °F 32.1 °F 30.50 in NW 10.4 mph 10.4 mph 56% 0.04 in OVC
11:54 47.7 °F 31.9 °F 30.49 in NNW 10.4 mph 10.4 mph 54% 0.04 in OVC
11:59 48.2 °F 32.3 °F 30.49 in WNW 10.4 mph 10.4 mph 54% 0.05 in RA
12:04 48.7 °F 32.3 °F 30.48 in NW 10.4 mph 10.4 mph 53% 0.05 in OVC
12:09 48.8 °F 32.9 °F 30.47 in WNW 10.4 mph 10.4 mph 54% 0.05 in OVC
12:14 48.9 °F 32.0 °F 30.47 in NW 10.4 mph 10.4 mph 52% 0.05 in OVC
12:19 48.4 °F 32.5 °F 30.46 in NW 10.4 mph 10.4 mph 54% 0.05 in OVC
12:24 48.9 °F 33.0 °F 30.46 in ENE 10.4 mph 10.4 mph 54% 0.05 in OVC
12:29 49.1 °F 33.2 °F 30.45 in NW 10.4 mph 10.4 mph 54% 0.04 in OVC
12:34 49.7 °F 33.7 °F 30.45 in NNW 10.4 mph 10.4 mph 54% 0.03 in OVC
12:39 50.5 °F 34.9 °F 30.44 in NW 10.4 mph 10.4 mph 55% 0.04 in OVC
12:44 50.7 °F 34.6 °F 30.43 in NNW 10.4 mph 10.4 mph 54% 0.04 in OVC
12:50 51.4 °F 34.3 °F 30.43 in NW 10.4 mph 10.4 mph 52% 0.03 in OVC
12:55 51.7 °F 34.1 °F 30.43 in NW 10.4 mph 10.4 mph 51% 0.03 in OVC
13:00 51.9 °F 35.3 °F 30.42 in West 10.4 mph 10.4 mph 53% 0.03 in OVC
13:05 52.5 °F 35.4 °F 30.42 in WNW 10.4 mph 10.4 mph 52% 0.03 in OVC
13:10 52.5 °F 35.4 °F 30.41 in NW 10.4 mph 10.4 mph 52% 0.03 in OVC
13:15 52.9 °F 36.2 °F 30.40 in NW 10.4 mph 10.4 mph 53% 0.02 in OVC
13:20 53.0 °F 35.8 °F 30.40 in WNW 10.4 mph 10.4 mph 52% 0.02 in OVC
13:25 52.7 °F 36.5 °F 30.38 in NW 10.4 mph 10.4 mph 54% 0.03 in RA
13:30 52.8 °F 36.6 °F 30.38 in NW 10.4 mph 10.4 mph 54% 0.03 in OVC
13:35 52.8 °F 36.1 °F 30.38 in NW 10.4 mph 10.4 mph 53% 0.02 in OVC
13:40 52.8 °F 35.6 °F 30.38 in NW 10.4 mph 10.4 mph 52% 0.02 in OVC
13:45 52.4 °F 35.8 °F 30.38 in NE 10.4 mph 10.4 mph 53% 0.02 in OVC
13:50 52.5 °F 36.3 °F 30.38 in NW 10.4 mph 10.4 mph 54% 0.02 in OVC
13:55 52.6 °F 36.4 °F 30.38 in NW 10.4 mph 10.4 mph 54% 0.02 in OVC
14:00 52.7 °F 36.5 °F 30.38 in NW 10.4 mph 10.4 mph 54% 0.01 in OVC
14:06 52.8 °F 36.1 °F 30.38 in NW 10.4 mph 10.4 mph 53% 0.01 in OVC
14:11 53.0 °F 36.3 °F 30.37 in NW 10.4 mph 10.4 mph 53% 0.01 in OVC
14:16 52.9 °F 36.7 °F 30.37 in NW 10.4 mph 10.4 mph 54% 0.01 in OVC
14:21 53.0 °F 36.8 °F 30.36 in NW 10.4 mph 10.4 mph 54% 0.01 in OVC
14:26 53.1 °F 36.4 °F 30.37 in NW 10.4 mph 10.4 mph 53% 0.00 in OVC
14:31 53.1 °F 37.3 °F 30.37 in NW 10.4 mph 10.4 mph 55% 0.00 in OVC
14:36 53.0 °F 36.8 °F 30.37 in NW 10.4 mph 10.4 mph 54% 0.00 in OVC
14:41 52.9 °F 36.7 °F 30.37 in NW 10.4 mph 10.4 mph 54% 0.00 in OVC
14:46 53.0 °F 37.7 °F 30.36 in NW 10.4 mph 10.4 mph 56% 0.00 in OVC
14:51 53.2 °F 37.4 °F 30.36 in WNW 10.4 mph 10.4 mph 55% 0.00 in OVC
14:56 53.4 °F 37.6 °F 30.36 in WNW 10.4 mph 10.4 mph 55% 0.00 in OVC
15:01 53.6 °F 37.8 °F 30.36 in NW 10.4 mph 10.4 mph 55% 0.00 in OVC
15:06 53.5 °F 37.7 °F 30.36 in NW 10.4 mph 10.4 mph 55% 0.00 in OVC
15:12 53.7 °F 37.9 °F 30.36 in NW 10.4 mph 10.4 mph 55% 0.00 in OVC
15:17 53.9 °F 38.1 °F 30.36 in WNW 10.4 mph 10.4 mph 55% 0.00 in OVC
15:22 54.1 °F 38.3 °F 30.37 in West 10.4 mph 10.4 mph 55% 0.00 in OVC
15:27 54.1 °F 38.3 °F 30.36 in NW 10.4 mph 10.4 mph 55% 0.00 in OVC
15:32 54.2 °F 38.4 °F 30.36 in NW 10.4 mph 10.4 mph 55% 0.00 in OVC
15:37 54.2 °F 38.4 °F 30.36 in WNW 10.4 mph 10.4 mph 55% 0.00 in OVC
15:42 54.3 °F 38.5 °F 30.36 in NNE 10.4 mph 10.4 mph 55% 0.00 in OVC
15:47 54.5 °F 39.1 °F 30.36 in NW 10.4 mph   56% 0.00 in OVC
15:52 54.5 °F 38.7 °F 30.36 in WNW 10.4 mph 10.4 mph 55% 0.00 in OVC
15:57 54.4 °F 38.6 °F 30.36 in WNW 10.4 mph 10.4 mph 55% 0.00 in OVC
16:02 54.4 °F 39.0 °F 30.36 in NW 10.4 mph 10.4 mph 56% 0.00 in CLR
16:07 54.3 °F 38.9 °F 30.36 in West 10.4 mph 10.4 mph 56% 0.00 in CLR
16:13 54.3 °F 38.9 °F 30.36 in WNW 10.4 mph 10.4 mph 56% 0.00 in CLR
16:18 54.3 °F 38.9 °F 30.36 in NW 10.4 mph 10.4 mph 56% 0.00 in CLR
16:23 54.3 °F 39.4 °F 30.37 in WNW 10.4 mph   57% 0.00 in CLR
16:28 54.2 °F 38.8 °F 30.36 in NW 10.4 mph 10.4 mph 56% 0.00 in CLR
16:33 54.3 °F 38.9 °F 30.36 in West 10.4 mph 10.4 mph 56% 0.00 in CLR
16:38 54.2 °F 39.3 °F 30.37 in West 10.4 mph   57% 0.00 in CLR
16:43 54.2 °F 39.3 °F 30.37 in West 10.4 mph 10.4 mph 57% 0.00 in CLR
16:48 54.2 °F 39.3 °F 30.38 in NNW 10.4 mph 10.4 mph 57% 0.00 in CLR
16:53 54.2 °F 39.3 °F 30.38 in NNW 10.4 mph   57% 0.00 in CLR
16:58 54.0 °F 39.1 °F 30.38 in NNW 10.4 mph 10.4 mph 57% 0.00 in CLR
17:03 54.1 °F 39.2 °F 30.38 in NNW 10.4 mph   57% 0.00 in CLR
17:08 53.9 °F 39.5 °F 30.37 in NNW 10.4 mph   58% 0.00 in CLR
17:13 53.7 °F 39.3 °F 30.37 in NNW 10.4 mph   58% 0.00 in CLR
17:18 53.5 °F 39.5 °F 30.37 in NNW 10.4 mph   59% 0.00 in CLR
17:24 53.4 °F 39.4 °F 30.37 in NNW 10.4 mph 10.4 mph 59% 0.00 in CLR
17:29 53.4 °F 39.4 °F 30.37 in NNW 10.4 mph   59% 0.00 in CLR
17:34 53.3 °F 39.8 °F 30.37 in NNW 10.4 mph   60% 0.00 in CLR
17:39 53.2 °F 39.7 °F 30.37 in NNW 10.4 mph   60% 0.00 in CLR
17:44 53.0 °F 39.5 °F 30.36 in NNW 10.4 mph 10.4 mph 60% 0.00 in CLR
17:49 53.0 °F 39.9 °F 30.35 in NNW 10.4 mph   61% 0.00 in CLR
17:54 52.8 °F 39.7 °F 30.35 in NNW 10.4 mph   61% 0.00 in CLR
17:59 52.6 °F 39.5 °F 30.35 in NNW 10.4 mph   61% 0.00 in CLR
18:04 52.6 °F 39.5 °F 30.35 in NW 10.4 mph 10.4 mph 61% 0.00 in
18:09 52.5 °F 39.4 °F 30.35 in NW 10.4 mph 10.4 mph 61% 0.00 in
18:14 52.5 °F 39.4 °F 30.35 in NW 10.4 mph   61% 0.00 in
18:19 52.5 °F 39.8 °F 30.35 in NW 10.4 mph 10.4 mph 62% 0.00 in
18:24 52.4 °F 39.8 °F 30.35 in NW 10.4 mph 10.4 mph 62% 0.00 in
18:29 52.5 °F 39.8 °F 30.35 in NW 10.4 mph 10.4 mph 62% 0.00 in
18:34 52.5 °F 39.8 °F 30.35 in NW 10.4 mph   62% 0.00 in
18:39 52.5 °F 40.3 °F 30.36 in NW 10.4 mph   63% 0.00 in
18:44 52.4 °F 40.2 °F 30.36 in NW 10.4 mph   63% 0.00 in
18:49 52.3 °F 40.1 °F 30.36 in North 10.4 mph   63% 0.00 in
18:55 52.3 °F 40.1 °F 30.36 in NW 10.4 mph 10.4 mph 63% 0.00 in
19:00 52.5 °F 40.3 °F 30.36 in NW 10.4 mph 10.4 mph 63% 0.00 in
19:05 52.5 °F 40.3 °F 30.36 in NW 10.4 mph 10.4 mph 63% 0.00 in
19:10 52.6 °F 40.4 °F 30.35 in NW 10.4 mph 10.4 mph 63% 0.00 in
19:15 52.6 °F 40.4 °F 30.36 in NW 10.4 mph   63% 0.00 in
19:20 52.6 °F 40.4 °F 30.35 in NW 10.4 mph 10.4 mph 63% 0.00 in
19:25 52.8 °F 40.5 °F 30.35 in NW 10.4 mph 10.4 mph 63% 0.00 in
19:30 52.9 °F 40.6 °F 30.35 in NW 10.4 mph 10.4 mph 63% 0.00 in
19:35 53.0 °F 41.1 °F 30.35 in NW 10.4 mph 10.4 mph 64% 0.00 in
19:40 53.2 °F 41.3 °F 30.35 in NW 10.4 mph 10.4 mph 64% 0.00 in
19:45 53.5 °F 41.6 °F 30.34 in NW 10.4 mph 10.4 mph 64% 0.00 in
19:50 53.7 °F 41.8 °F 30.34 in NW 10.4 mph 10.4 mph 64% 0.00 in
19:56 54.1 °F 42.2 °F 30.35 in North 10.4 mph 10.4 mph 64% 0.00 in
20:01 54.4 °F 42.1 °F 30.35 in NW 10.4 mph 10.4 mph 63% 0.00 in
20:06 54.5 °F 42.6 °F 30.34 in NW 10.4 mph 10.4 mph 64% 0.00 in
20:11 54.7 °F 42.3 °F 30.34 in NW 10.4 mph 10.4 mph 63% 0.00 in
20:16 54.8 °F 42.4 °F 30.34 in NW 10.4 mph 10.4 mph 63% 0.00 in
20:21 54.8 °F 42.4 °F 30.34 in WNW 10.4 mph 10.4 mph 63% 0.00 in
20:26 54.9 °F 42.9 °F 30.34 in NW 10.4 mph 10.4 mph 64% 0.00 in
20:31 54.8 °F 42.9 °F 30.34 in NW 10.4 mph 10.4 mph 64% 0.00 in
20:36 54.9 °F 42.9 °F 30.34 in NW 10.4 mph 10.4 mph 64% 0.00 in
20:41 55.1 °F 42.7 °F 30.33 in NW 10.4 mph 10.4 mph 63% 0.00 in
20:46 55.1 °F 42.7 °F 30.33 in NW 10.4 mph 10.4 mph 63% 0.00 in
20:51 55.2 °F 42.8 °F 30.33 in NW 10.4 mph 10.4 mph 63% 0.00 in
20:56 55.2 °F 42.8 °F 30.34 in NW 10.4 mph 10.4 mph 63% 0.00 in
21:01 55.2 °F 42.8 °F 30.34 in NW 10.4 mph 10.4 mph 63% 0.00 in
21:07 55.1 °F 42.7 °F 30.34 in NW 10.4 mph 10.4 mph 63% 0.00 in
21:12 55.1 °F 43.1 °F 30.33 in WNW 10.4 mph 10.4 mph 64% 0.00 in
21:17 55.1 °F 43.1 °F 30.34 in WNW 10.4 mph 10.4 mph 64% 0.00 in
21:22 55.2 °F 43.2 °F 30.34 in North 10.4 mph 10.4 mph 64% 0.00 in
21:27 55.2 °F 43.6 °F 30.34 in NNW 10.4 mph 10.4 mph 65% 0.00 in
21:32 55.3 °F 43.7 °F 30.34 in NW 10.4 mph 10.4 mph 65% 0.00 in
21:37 55.3 °F 44.1 °F 30.34 in NW 10.4 mph 10.4 mph 66% 0.00 in
21:43 55.3 °F 44.1 °F 30.34 in NW 10.4 mph   66% 0.00 in
21:48 55.1 °F 44.3 °F 30.34 in NW 10.4 mph 10.4 mph 67% 0.00 in
21:53 55.0 °F 44.2 °F 30.34 in NW 10.4 mph   67% 0.00 in
21:58 54.9 °F 44.1 °F 30.34 in NNW 10.4 mph 10.4 mph 67% 0.00 in
22:03 54.8 °F 44.0 °F 30.34 in NW 10.4 mph 10.4 mph 67% 0.00 in
22:08 54.8 °F 44.0 °F 30.34 in NW 10.4 mph   67% 0.00 in
22:13 54.7 °F 44.3 °F 30.34 in NW 10.4 mph 10.4 mph 68% 0.00 in
22:18 54.9 °F 44.1 °F 30.34 in WNW 10.4 mph 10.4 mph 67% 0.00 in
22:23 55.0 °F 44.2 °F 30.34 in NW 10.4 mph 10.4 mph 67% 0.00 in
22:28 54.9 °F 44.1 °F 30.34 in WNW 10.4 mph 10.4 mph 67% 0.00 in
22:33 55.0 °F 44.2 °F 30.34 in North 10.4 mph 10.4 mph 67% 0.00 in
22:38 54.9 °F 44.1 °F 30.35 in NW 10.4 mph 10.4 mph 67% 0.00 in
22:44 55.0 °F 43.8 °F 30.35 in NW 10.4 mph   66% 0.00 in
22:49 54.9 °F 43.7 °F 30.35 in NNW 10.4 mph 10.4 mph 66% 0.00 in
22:54 54.9 °F 43.7 °F 30.34 in NW 10.4 mph   66% 0.00 in
22:59 54.9 °F 43.7 °F 30.34 in NW 10.4 mph 10.4 mph 66% 0.00 in
23:04 54.8 °F 43.7 °F 30.34 in NW 10.4 mph 10.4 mph 66% 0.00 in
23:09 54.9 °F 43.7 °F 30.34 in WNW 10.4 mph 10.4 mph 66% 0.00 in
23:14 55.0 °F 43.4 °F 30.34 in NW 10.4 mph 10.4 mph 65% 0.00 in
23:19 55.0 °F 43.4 °F 30.34 in NW 10.4 mph 10.4 mph 65% 0.00 in
23:24 54.9 °F 43.4 °F 30.34 in NW 10.4 mph 10.4 mph 65% 0.00 in
23:29 54.9 °F 43.4 °F 30.34 in WNW 10.4 mph 10.4 mph 65% 0.00 in
23:34 55.0 °F 43.4 °F 30.34 in WNW 10.4 mph 10.4 mph 65% 0.00 in
23:39 54.8 °F 43.3 °F 30.34 in NW 10.4 mph 10.4 mph 65% 0.00 in
23:44 54.8 °F 43.7 °F 30.34 in NW 10.4 mph 10.4 mph 66% 0.00 in
23:49 54.6 °F 43.5 °F 30.34 in North 10.4 mph 10.4 mph 66% 0.00 in
23:55 54.6 °F 43.5 °F 30.34 in North 10.4 mph 10.4 mph 66% 0.00 in
Piedmont Bend
Compliments of Weather Underground - 2 mb